Skip Page Navigation
NASA JPL Caltech
NASA Logo - Jet Propulsion Laboratory + View the NASA Portal
+ Near-Earth Object (NEO) Program
Search JPL
JPL Home Earth Solar System Stars & Galaxies Technology
JPL Solar System Dynamics
BODIES ORBITS EPHEMERIDES TOOLS PHYSICAL DATA DISCOVERY FAQ SITE MAP
JPL Small-Body Database Browser
Search: [ help ]  
(2011 EB74)
Classification: Aten [NEO]          SPK-ID: 3559908
Ephemeris | Orbit Diagram | Orbital Elements | Physical Parameters | Close-Approach Data ]

[ hide orbit diagram ]
Orbit Diagram
Note: Make sure you have Java enabled on your browser to see the applet. This applet is provided as a 3D orbit visualization tool. The applet was implemented using 2-body methods, and hence should not be used for determining accurate long-term trajectories (over several years or decades) or planetary encounter circumstances. For accurate long-term ephemerides, please instead use our Horizons system.
Orbit Viewer

Additional Notes: the orbits shown in the applet are color coded. The planets are white lines, and the asteroid/comet is a blue line. The bright white line indicates the portion of the orbit that is above the ecliptic plane, and the darker portion is below the ecliptic plane. Likewise for the asteroid/comet orbit, the light blue indicates the portion above the ecliptic plane, and the dark blue the portion below the ecliptic plane.

Orbit Viewer applet originally written and kindly provided by Osamu Ajiki (AstroArts), and further modified by Ron Baalke (JPL).


Orbital Elements at Epoch 2455635.5 (2011-Mar-15.0) TDB
Reference: JPL 2 (heliocentric ecliptic J2000)
 Element Value Uncertainty (1-sigma)   Units 
e .1766817546932482 0.0055724  
a .9324212356706335 0.0041548 AU
q .7676794156390992 0.0085677 AU
i 10.5967296036963 0.21795 deg
node 355.9992361483088 0.042424 deg
peri 300.9524808236392 1.137 deg
M 255.1426446475276 0.81012 deg
tp 2455731.288431075575
(2011-Jun-18.78843108)
0.2252 JED
period 328.8642467787921
0.90
2.1981
0.006018
d
yr
n 1.094676613606316 0.0073168 deg/d
Q 1.097163055702168 0.0048889 AU
  Orbit Determination Parameters
   # obs. used (total)      17  
   first obs. used      2011-03-15  
   last obs. used      2011-03-15  
   planetary ephem.      DE405  
   SB-pert. ephem.      SB405-CPV-2  
   condition code      9  
   fit RMS      .56674  
   data source      ORB  
   producer      Otto Matic  
   solution date      2011-Sep-14 21:06:22  

Additional Information
 Earth MOID = .000857277 AU 
 T_jup = 6.400 
[ show covariance matrix ]

Ephemeris | Orbit Diagram | Orbital Elements | Physical Parameters | Close-Approach Data ]

Physical Parameter Table
Parameter Symbol Value Units Sigma Reference Notes
absolute magnitude H 26.881 mag .22418 2 autocmod 2.5a

[ show close-approach data ]
Ephemeris | Orbit Diagram | Orbital Elements | Physical Parameters | Close-Approach Data ]
ABOUT SSD CREDITS/AWARDS PRIVACY/COPYRIGHT GLOSSARY LINKS
FirstGov 2013-May-25 09:07 UT
(server date/time)  
NASA Home Page
Site Manager:   Donald K. Yeomans
Webmaster  Alan B. Chamberlin